| time (UTC) | temp C | wind direction | speed KPH | gust KPH | rain 1hr cm | rain 24hr cm | rain mn cm | humidity % | barometer mb |
| 20260503173441 | 15 | 213 | 3.2 | 16.1 | 0.00 | 0.00 | 0.00 | 38 | 1017.1 |
| 20260503172440 | 15 | 289 | 4.8 | 25.7 | 0.00 | 0.00 | 0.00 | 38 | 1017.3 |
| 20260503171916 | 14 | 211 | 3.2 | 22.5 | 0.00 | 0.00 | 0.00 | 39 | 1017.5 |
| 20260503170441 | 15 | 220 | 3.2 | 19.3 | 0.00 | 0.00 | 0.00 | 39 | 1017.6 |
| 20260503150433 | 12 | 206 | 3.2 | 22.5 | 0.00 | 0.00 | 0.00 | 46 | 1018.9 |
| 20260503130429 | 7 | 238 | 1.6 | 6.4 | 0.00 | 0.00 | 0.00 | 67 | 1019.0 |
| 20260503110426 | 1 | 38 | 0.0 | 0.0 | 0.00 | 0.00 | 0.00 | 89 | 1018.3 |
| 20260503090422 | 1 | 38 | 0.0 | 0.0 | 0.00 | 0.00 | 0.00 | 87 | 1017.5 |
| 20260503081423 | 1 | 38 | 0.0 | 0.0 | 0.00 | 0.00 | 0.00 | 87 | 1017.4 |
| 20260503080422 | 1 | 38 | 0.0 | 0.0 | 0.00 | 0.00 | 0.00 | 86 | 1017.4 |
| 20260503072423 | 1 | 38 | 0.0 | 0.0 | 0.00 | 0.00 | 0.00 | 85 | 1017.4 |
| 20260503071422 | 1 | 38 | 0.0 | 0.0 | 0.00 | 0.00 | 0.00 | 85 | 1017.3 |
| 20260503070902 | 1 | 38 | 0.0 | 0.0 | 0.00 | 0.00 | 0.00 | 85 | 1017.4 |
| 20260503054420 | 2 | 38 | 0.0 | 0.0 | 0.00 | 0.00 | 0.00 | 83 | 1018.0 |
| 20260503053421 | 2 | 38 | 0.0 | 0.0 | 0.00 | 0.00 | 0.00 | 82 | 1018.0 |
| 20260503052419 | 2 | 38 | 0.0 | 0.0 | 0.00 | 0.00 | 0.00 | 81 | 1018.0 |
| 20260503051859 | 2 | 38 | 0.0 | 0.0 | 0.00 | 0.00 | 0.00 | 81 | 1017.9 |
| 20260503050802 | 2 | 38 | 0.0 | 0.0 | 0.00 | 0.00 | 0.00 | 80 | 1018.1 |
| 20260503050439 | 2 | 38 | 0.0 | 0.0 | 0.00 | 0.00 | 0.00 | 80 | 1017.9 |
| 20260503044412 | 2 | 38 | 0.0 | 0.0 | 0.00 | 0.00 | 0.00 | 80 | 1018.1 |
| 20260503043411 | 2 | 38 | 0.0 | 0.0 | 0.00 | 0.00 | 0.00 | 79 | 1018.1 |
| 20260503042409 | 3 | 38 | 0.0 | 0.0 | 0.00 | 0.00 | 0.00 | 79 | 1018.1 |
| 20260503041411 | 3 | 38 | 0.0 | 0.0 | 0.00 | 0.00 | 0.00 | 78 | 1018.1 |
| 20260503040412 | 3 | 38 | 0.0 | 0.0 | 0.00 | 0.00 | 0.00 | 78 | 1018.0 |
| 20260503035408 | 3 | 38 | 0.0 | 0.0 | 0.00 | 0.00 | 0.00 | 77 | 1018.1 |
| 20260503034408 | 3 | 38 | 0.0 | 0.0 | 0.00 | 0.00 | 0.00 | 76 | 1018.1 |
| 20260503033406 | 3 | 38 | 0.0 | 0.0 | 0.00 | 0.00 | 0.00 | 75 | 1018.1 |
| 20260503032406 | 4 | 38 | 0.0 | 0.0 | 0.00 | 0.00 | 0.00 | 74 | 1018.1 |
| 20260503031406 | 4 | 38 | 0.0 | 0.0 | 0.00 | 0.00 | 0.00 | 73 | 1018.2 |
| 20260503030404 | 4 | 38 | 0.0 | 0.0 | 0.00 | 0.00 | 0.00 | 72 | 1018.1 |
| 20260503025401 | 5 | 38 | 0.0 | 0.0 | 0.00 | 0.00 | 0.00 | 72 | 1018.2 |
| 20260503024832 | 5 | 38 | 0.0 | 0.0 | 0.00 | 0.00 | 0.00 | 70 | 1018.2 |
| 20260503023359 | 5 | 38 | 0.0 | 0.0 | 0.00 | 0.00 | 0.00 | 68 | 1018.2 |
| 20260503022356 | 5 | 38 | 0.0 | 0.0 | 0.00 | 0.00 | 0.00 | 66 | 1018.2 |
| 20260503021837 | 6 | 38 | 0.0 | 0.0 | 0.00 | 0.00 | 0.00 | 65 | 1018.1 |
| 20260503021315 | 6 | 38 | 0.0 | 0.0 | 0.00 | 0.00 | 0.00 | 63 | 1018.0 |
| 20260503015358 | 7 | 38 | 0.0 | 0.0 | 0.00 | 0.00 | 0.00 | 60 | 1017.9 |
| 20260503014358 | 7 | 38 | 0.0 | 0.0 | 0.00 | 0.00 | 0.00 | 58 | 1017.8 |
| 20260503013356 | 7 | 38 | 0.0 | 0.0 | 0.00 | 0.00 | 0.00 | 57 | 1017.7 |
| 20260503012357 | 7 | 38 | 0.0 | 3.2 | 0.00 | 0.00 | 0.00 | 56 | 1017.7 |
| 20260503011359 | 7 | 38 | 0.0 | 3.2 | 0.00 | 0.00 | 0.00 | 55 | 1017.5 |
| 20260503010357 | 8 | 38 | 1.6 | 8.0 | 0.00 | 0.00 | 0.00 | 55 | 1017.4 |
| 20260503005358 | 8 | 0 | 1.6 | 6.4 | 0.00 | 0.00 | 0.00 | 54 | 1017.3 |
| 20260503004357 | 8 | 342 | 4.8 | 17.7 | 0.00 | 0.00 | 0.00 | 52 | 1017.2 |
| 20260503003355 | 9 | 342 | 6.4 | 22.5 | 0.00 | 0.00 | 0.00 | 52 | 1017.2 |
| 20260503002358 | 9 | 315 | 6.4 | 17.7 | 0.00 | 0.00 | 0.00 | 51 | 1017.1 |
| 20260503001355 | 9 | 325 | 3.2 | 14.5 | 0.00 | 0.00 | 0.00 | 50 | 1017.0 |
| 20260503000847 | 10 | 37 | 6.4 | 17.7 | 0.00 | 0.00 | 0.00 | 49 | 1016.8 |
| 20260502235354 | 10 | 345 | 6.4 | 17.7 | 0.00 | 0.00 | 0.00 | 48 | 1016.8 |
| 20260502234354 | 10 | 275 | 8.0 | 19.3 | 0.00 | 0.00 | 0.00 | 47 | 1016.7 |
| 20260502233356 | 10 | 306 | 11.3 | 24.1 | 0.00 | 0.00 | 0.00 | 45 | 1016.6 |
| 20260502232356 | 10 | 323 | 11.3 | 24.1 | 0.00 | 0.00 | 0.00 | 45 | 1016.5 |
| 20260502231838 | 11 | 338 | 6.4 | 22.5 | 0.00 | 0.00 | 0.00 | 45 | 1016.4 |
| 20260502230350 | 11 | 309 | 9.7 | 22.5 | 0.00 | 0.00 | 0.00 | 44 | 1016.4 |
| 20260502225837 | 11 | 288 | 4.8 | 25.7 | 0.00 | 0.00 | 0.00 | 45 | 1016.5 |
| 20260502224825 | 11 | 290 | 6.4 | 16.1 | 0.00 | 0.00 | 0.00 | 45 | 1016.4 |
| 20260502223350 | 11 | 308 | 9.7 | 29.0 | 0.00 | 0.00 | 0.00 | 43 | 1016.3 |
| 20260502222352 | 11 | 313 | 9.7 | 24.1 | 0.00 | 0.00 | 0.00 | 43 | 1016.2 |
| 20260502221351 | 10 | 313 | 8.0 | 20.9 | 0.00 | 0.00 | 0.00 | 42 | 1016.3 |
| 20260502220343 | 11 | 213 | 6.4 | 19.3 | 0.00 | 0.00 | 0.00 | 43 | 1016.2 |
| 20260502215344 | 11 | 311 | 8.0 | 27.4 | 0.00 | 0.00 | 0.00 | 43 | 1016.2 |
| 20260502214344 | 11 | 284 | 6.4 | 16.1 | 0.00 | 0.00 | 0.00 | 42 | 1016.2 |
| 20260502213344 | 11 | 313 | 6.4 | 20.9 | 0.00 | 0.00 | 0.00 | 41 | 1016.1 |
| 20260502212345 | 11 | 324 | 8.0 | 20.9 | 0.00 | 0.00 | 0.00 | 42 | 1016.0 |
| 20260502211344 | 11 | 342 | 8.0 | 17.7 | 0.00 | 0.00 | 0.00 | 43 | 1016.0 |
| 20260502210823 | 11 | 330 | 12.9 | 29.0 | 0.00 | 0.00 | 0.00 | 43 | 1016.0 |
| 20260502205339 | 11 | 327 | 6.4 | 19.3 | 0.00 | 0.00 | 0.00 | 43 | 1015.9 |
| 20260502204340 | 11 | 44 | 8.0 | 22.5 | 0.00 | 0.00 | 0.00 | 44 | 1015.9 |
| 20260502203338 | 11 | 300 | 8.0 | 19.3 | 0.00 | 0.00 | 0.00 | 41 | 1015.8 |
| 20260502202821 | 11 | 345 | 4.8 | 22.5 | 0.00 | 0.00 | 0.00 | 41 | 1016.1 |
| 20260502201338 | 11 | 244 | 11.3 | 30.6 | 0.00 | 0.00 | 0.00 | 41 | 1016.2 |
| 20260502201253 | 12 | 335 | 12.9 | 27.4 | 0.00 | 0.00 | 0.00 | 45 | 1016.2 |
| 20260502195338 | 11 | 307 | 9.7 | 24.1 | 0.00 | 0.00 | 0.00 | 41 | 1016.2 |
| 20260502194338 | 11 | 317 | 9.7 | 22.5 | 0.00 | 0.00 | 0.00 | 43 | 1016.4 |
| 20260502193338 | 11 | 261 | 11.3 | 22.5 | 0.00 | 0.00 | 0.00 | 40 | 1016.4 |
| 20260502192826 | 11 | 297 | 8.0 | 17.7 | 0.00 | 0.00 | 0.00 | 42 | 1016.4 |
| 20260502191815 | 11 | 287 | 9.7 | 24.1 | 0.00 | 0.00 | 0.00 | 41 | 1016.6 |
| 20260502190339 | 11 | 329 | 6.4 | 24.1 | 0.00 | 0.00 | 0.00 | 43 | 1016.5 |
| 20260502185338 | 10 | 299 | 6.4 | 22.5 | 0.00 | 0.00 | 0.00 | 43 | 1016.7 |
| 20260502184337 | 10 | 271 | 11.3 | 30.6 | 0.00 | 0.00 | 0.00 | 42 | 1016.8 |
| 20260502183337 | 11 | 332 | 8.0 | 27.4 | 0.00 | 0.00 | 0.00 | 43 | 1016.6 |
| 20260502182338 | 11 | 323 | 6.4 | 25.7 | 0.00 | 0.00 | 0.00 | 41 | 1016.9 |
| 20260502181339 | 11 | 288 | 9.7 | 25.7 | 0.00 | 0.00 | 0.00 | 44 | 1016.9 |
| 20260502180338 | 11 | 307 | 9.7 | 27.4 | 0.00 | 0.00 | 0.00 | 45 | 1016.9 |